TimeEDT,TemperatureF,Dew PointF,Humidity,Sea Level PressureIn,VisibilityMPH,Wind Direction,Wind SpeedMPH,Gust SpeedMPH,PrecipitationIn,Events,Conditions,WindDirDegrees,DateUTC
12:00 AM,42.8,28.4,57,29.99,10.0,West,4.6,-,N/A,,Overcast,280,2013-03-27 04:00:00
12:21 AM,41.0,28.4,61,30.00,10.0,WNW,5.8,-,N/A,,Overcast,290,2013-03-27 04:21:00
12:39 AM,41.0,28.4,61,30.00,10.0,West,9.2,-,N/A,,Overcast,280,2013-03-27 04:39:00
1:00 AM,41.0,28.4,61,30.00,10.0,WNW,9.2,-,N/A,,Overcast,300,2013-03-27 05:00:00
1:21 AM,41.0,28.4,61,30.00,10.0,WNW,6.9,-,N/A,,Overcast,290,2013-03-27 05:21:00
1:42 AM,41.0,28.4,61,30.01,10.0,WNW,6.9,-,N/A,,Overcast,300,2013-03-27 05:42:00
2:00 AM,37.4,28.4,70,30.01,10.0,WNW,5.8,-,N/A,,Scattered Clouds,290,2013-03-27 06:00:00
2:21 AM,37.4,28.4,70,30.00,10.0,WNW,4.6,-,N/A,,Scattered Clouds,300,2013-03-27 06:21:00
2:42 AM,37.4,28.4,70,30.00,10.0,WNW,3.5,-,N/A,,Overcast,300,2013-03-27 06:42:00
3:00 AM,37.4,28.4,70,30.00,10.0,West,4.6,-,N/A,,Mostly Cloudy,270,2013-03-27 07:00:00
3:21 AM,37.4,28.4,70,30.00,10.0,WNW,5.8,-,N/A,,Overcast,300,2013-03-27 07:21:00
3:42 AM,37.4,30.2,75,30.00,10.0,West,6.9,-,N/A,,Overcast,280,2013-03-27 07:42:00
4:00 AM,37.4,30.2,75,30.00,10.0,West,5.8,-,N/A,,Overcast,270,2013-03-27 08:00:00
4:21 AM,37.4,30.2,75,30.00,10.0,West,6.9,-,N/A,,Overcast,280,2013-03-27 08:21:00
4:42 AM,35.6,28.4,75,30.01,10.0,West,6.9,-,N/A,,Mostly Cloudy,280,2013-03-27 08:42:00
5:00 AM,35.6,28.4,75,30.01,10.0,West,4.6,-,N/A,,Mostly Cloudy,280,2013-03-27 09:00:00
5:21 AM,35.6,28.4,75,30.01,10.0,West,5.8,-,N/A,,Scattered Clouds,280,2013-03-27 09:21:00
5:42 AM,35.6,28.4,75,30.02,10.0,West,6.9,-,N/A,,Clear,280,2013-03-27 09:42:00
6:00 AM,35.6,28.4,75,30.02,10.0,West,8.1,-,N/A,,Scattered Clouds,270,2013-03-27 10:00:00
6:21 AM,35.6,28.4,75,30.03,10.0,West,8.1,-,N/A,,Mostly Cloudy,280,2013-03-27 10:21:00
7:00 AM,37.4,28.4,70,30.03,10.0,West,9.2,-,N/A,,Overcast,270,2013-03-27 11:00:00
7:21 AM,35.6,28.4,75,30.04,10.0,West,10.4,-,N/A,,Mostly Cloudy,280,2013-03-27 11:21:00
7:42 AM,35.6,28.4,75,30.05,10.0,West,5.8,-,N/A,,Clear,280,2013-03-27 11:42:00
8:00 AM,37.4,28.4,70,30.06,10.0,WNW,6.9,-,N/A,,Clear,290,2013-03-27 12:00:00
8:21 AM,39.2,28.4,65,30.06,10.0,WNW,11.5,16.1,N/A,,Clear,290,2013-03-27 12:21:00
8:42 AM,41.0,28.4,61,30.07,10.0,WNW,11.5,-,N/A,,Clear,290,2013-03-27 12:42:00
9:03 AM,42.8,28.4,57,30.07,10.0,NW,9.2,17.3,N/A,,Clear,310,2013-03-27 13:03:00
9:21 AM,44.6,28.4,53,30.07,10.0,WNW,15.0,23.0,N/A,,Clear,290,2013-03-27 13:21:00
9:42 AM,44.6,28.4,53,30.07,10.0,NW,15.0,19.6,N/A,,Clear,310,2013-03-27 13:42:00
10:03 AM,44.6,28.4,53,30.08,10.0,WNW,8.1,21.9,N/A,,Clear,290,2013-03-27 14:03:00
10:21 AM,46.4,28.4,50,30.08,10.0,NW,13.8,21.9,N/A,,Clear,310,2013-03-27 14:21:00
11:03 AM,46.4,28.4,50,30.08,10.0,NW,13.8,18.4,N/A,,Clear,310,2013-03-27 15:03:00
11:21 AM,48.2,28.4,46,30.07,10.0,WNW,16.1,25.3,N/A,,Clear,290,2013-03-27 15:21:00
11:42 AM,50.0,28.4,43,30.07,10.0,WNW,13.8,26.5,N/A,,Clear,300,2013-03-27 15:42:00
12:03 PM,46.4,26.6,46,30.07,10.0,NW,16.1,26.5,N/A,,Scattered Clouds,310,2013-03-27 16:03:00
12:21 PM,48.2,26.6,43,30.07,10.0,WNW,15.0,21.9,N/A,,Mostly Cloudy,300,2013-03-27 16:21:00
12:42 PM,46.4,26.6,46,30.07,10.0,WNW,12.7,24.2,N/A,,Overcast,300,2013-03-27 16:42:00
1:03 PM,50.0,28.4,43,30.06,10.0,WNW,13.8,24.2,N/A,,Overcast,290,2013-03-27 17:03:00
1:21 PM,48.2,28.4,46,30.06,10.0,NW,12.7,23.0,N/A,,Overcast,310,2013-03-27 17:21:00
1:42 PM,46.4,26.6,46,30.06,10.0,West,16.1,23.0,N/A,,Mostly Cloudy,280,2013-03-27 17:42:00
2:03 PM,46.4,28.4,50,30.06,10.0,NW,9.2,29.9,N/A,,Mostly Cloudy,320,2013-03-27 18:03:00
2:21 PM,46.4,28.4,50,30.05,10.0,West,16.1,23.0,N/A,,Mostly Cloudy,270,2013-03-27 18:21:00
3:03 PM,46.4,26.6,46,30.05,10.0,WNW,19.6,26.5,N/A,,Mostly Cloudy,290,2013-03-27 19:03:00
3:21 PM,44.6,30.2,57,30.06,10.0,West,11.5,27.6,N/A,,Overcast,280,2013-03-27 19:21:00
3:42 PM,46.4,30.2,53,30.06,10.0,West,19.6,27.6,N/A,,Mostly Cloudy,280,2013-03-27 19:42:00
4:03 PM,46.4,30.2,53,30.06,10.0,WNW,11.5,21.9,N/A,,Clear,290,2013-03-27 20:03:00
4:21 PM,46.4,28.4,50,30.05,10.0,NW,12.7,23.0,N/A,,Scattered Clouds,310,2013-03-27 20:21:00
4:42 PM,50.0,28.4,43,30.05,10.0,WNW,17.3,24.2,N/A,,Mostly Cloudy,300,2013-03-27 20:42:00
5:03 PM,42.8,28.4,57,30.06,10.0,West,11.5,25.3,N/A,,Mostly Cloudy,270,2013-03-27 21:03:00
5:24 PM,46.4,28.4,50,30.06,10.0,West,11.5,19.6,N/A,,Scattered Clouds,280,2013-03-27 21:24:00
6:03 PM,46.4,26.6,46,30.06,10.0,WNW,11.5,25.3,N/A,,Scattered Clouds,290,2013-03-27 22:03:00
6:24 PM,46.4,26.6,46,30.07,10.0,NNW,9.2,25.3,N/A,,Overcast,340,2013-03-27 22:24:00
6:42 PM,44.6,21.2,39,30.07,10.0,WNW,15.0,20.7,N/A,,Mostly Cloudy,290,2013-03-27 22:42:00
7:03 PM,44.6,23.0,43,30.08,10.0,NW,12.7,19.6,N/A,,Scattered Clouds,310,2013-03-27 23:03:00
7:24 PM,42.8,23.0,46,30.08,10.0,NW,9.2,16.1,N/A,,Clear,310,2013-03-27 23:24:00
7:42 PM,42.8,23.0,46,30.09,10.0,WNW,5.8,-,N/A,,Clear,300,2013-03-27 23:42:00
8:03 PM,42.8,23.0,46,30.10,10.0,WNW,6.9,-,N/A,,Clear,300,2013-03-28 00:03:00
8:24 PM,41.0,23.0,49,30.10,10.0,WNW,10.4,-,N/A,,Clear,290,2013-03-28 00:24:00
8:42 PM,42.8,23.0,46,30.11,10.0,WNW,9.2,18.4,N/A,,Clear,290,2013-03-28 00:42:00
9:03 PM,41.0,23.0,49,30.11,10.0,WNW,11.5,17.3,N/A,,Clear,290,2013-03-28 01:03:00
9:24 PM,41.0,24.8,53,30.12,10.0,WNW,9.2,17.3,N/A,,Clear,290,2013-03-28 01:24:00
9:42 PM,41.0,24.8,53,30.12,10.0,WNW,6.9,-,N/A,,Clear,290,2013-03-28 01:42:00
10:03 PM,39.2,24.8,56,30.12,10.0,West,9.2,-,N/A,,Clear,280,2013-03-28 02:03:00
10:24 PM,39.2,26.6,61,30.12,10.0,West,8.1,-,N/A,,Mostly Cloudy,280,2013-03-28 02:24:00
10:42 PM,39.2,26.6,61,30.13,10.0,WNW,5.8,-,N/A,,Mostly Cloudy,290,2013-03-28 02:42:00
11:03 PM,37.4,24.8,60,30.13,10.0,West,9.2,-,N/A,,Scattered Clouds,280,2013-03-28 03:03:00
11:24 PM,41.0,26.6,57,30.12,10.0,West,11.5,16.1,N/A,,Overcast,280,2013-03-28 03:24:00
11:42 PM,41.0,26.6,57,30.12,10.0,West,9.2,-,N/A,,Overcast,280,2013-03-28 03:42:00